Flag for France

Past Weather in Lyon, Auvergne-Rhône-Alpes, France — Yesterday and Last 2 Weeks

Now
68 °F

Mostly cloudy.


Feels Like: 68 °F
Forecast: 60 / 50 °F
Wind: 10 mph from South

Location: Lyon / Bron
Current Time: Sep 24, 2020 at 2:41:17 pm
Latest Report: Sep 24, 2020 at 2:00 pm
Visibility: N/A
Pressure29.77 "Hg
Humidity: 83%
Dew Point: 63 °F
Location of LyonLocation

Past Weather in Lyon — Graph

°F

Lyon Temperature Yesterday

Maximum temperature yesterday: 79 °F (at 3:30 pm)
Minimum temperature yesterday: 57 °F (at 7:00 am)
Average temperature yesterday: 68 °F

High & Low Weather Summary for the Past Weeks

 TemperatureHumidityPressure
High95 °F (Sep 14, 4:30 pm)94% (Sep 20, 6:00 am)30.27 "Hg (Sep 20, 6:00 am)
Low57 °F (Sep 23, 7:00 am)25% (Sep 14, 4:30 pm)29.74 "Hg (Sep 23, 6:00 pm)
Average73 °F60%30.04 "Hg
* Reported Sep 9 1:00 pm — Sep 24 1:00 pm, Lyon. Weather by CustomWeather, © 2020

Note: Actual official high and low records may vary slightly from our data, if they occured in-between our weather recording intervals... More about our weather records

Lyon Weather History for the Previous 24 Hours

Scroll right to see more
 ConditionsComfort  
Time TempWeatherWind HumidityBarometerVisibility
1:00 pm
Thu, Sep 24
66 °FMild.13 mph78%29.80 "HgN/A
12:30 pm68 °FOvercast.12 mph73%29.80 "HgN/A
12:00 pm68 °FBroken clouds.12 mph73%29.80 "HgN/A
11:30 am68 °FPassing clouds.10 mph73%29.80 "HgN/A
11:00 am68 °FSunny.9 mph78%29.83 "Hg10 mi
10:30 am66 °FSunny.8 mph83%29.83 "Hg10 mi
10:00 am64 °FPassing clouds.3 mph88%29.83 "HgN/A
9:30 am64 °FMostly cloudy.6 mph88%29.83 "HgN/A
9:00 am63 °FLight rain. Cloudy.9 mph88%29.83 "HgN/A
8:30 am64 °FRain. Cloudy.10 mph83%29.83 "HgN/A
8:00 am64 °FMild.9 mph83%29.83 "HgN/A
7:30 am64 °FSunny.6 mph83%29.83 "Hg10 mi
7:00 am64 °FClear.5 mph83%29.83 "Hg10 mi
6:30 am64 °FClear.5 mph83%29.83 "Hg10 mi
6:00 am64 °FClear.7 mph83%29.83 "Hg10 mi
5:30 am64 °FClear.9 mph83%29.83 "Hg10 mi
5:00 am66 °FClear.10 mph83%29.83 "Hg10 mi
4:30 am66 °FClear.9 mph83%29.83 "Hg10 mi
4:00 am66 °FClear.10 mph83%29.83 "Hg10 mi
3:30 am68 °FClear.12 mph78%29.83 "Hg10 mi
3:00 am68 °FClear.9 mph78%29.83 "Hg10 mi
2:30 am68 °FClear.10 mph78%29.83 "Hg10 mi
2:00 am68 °FClear.12 mph78%29.83 "Hg10 mi
1:30 am68 °FClear.13 mph78%29.83 "Hg10 mi
1:00 am70 °FClear.13 mph73%29.83 "Hg10 mi
12:30 am70 °FClear.12 mph69%29.83 "Hg10 mi
12:00 am70 °FClear.13 mph69%29.80 "Hg10 mi
11:30 pm
Wed, Sep 23
70 °FClear.14 mph69%29.80 "Hg10 mi
11:00 pm70 °FClear.16 mph69%29.80 "Hg10 mi
10:30 pm70 °FMild.14 mph69%29.80 "HgN/A
10:00 pm70 °FClear.13 mph69%29.80 "Hg10 mi
9:30 pm72 °FClear.12 mph65%29.77 "Hg10 mi
9:00 pm72 °FClear.13 mph65%29.77 "Hg10 mi
8:30 pm72 °FClear.12 mph61%29.77 "Hg10 mi
8:00 pm72 °FClear.10 mph57%29.74 "Hg10 mi
7:30 pm73 °FSunny.10 mph53%29.74 "Hg10 mi
7:00 pm75 °FSunny.10 mph50%29.74 "Hg10 mi
6:30 pm77 °FPassing clouds.12 mph47%29.74 "HgN/A
6:00 pm79 °FSunny.12 mph45%29.74 "Hg10 mi
5:30 pm79 °FSunny.10 mph45%29.77 "Hg10 mi
5:00 pm79 °FPassing clouds.8 mph45%29.77 "HgN/A
4:30 pm79 °FPassing clouds.7 mph45%29.77 "HgN/A
4:00 pm79 °FScattered clouds.7 mph45%29.80 "HgN/A
3:30 pm79 °FPassing clouds.6 mph45%29.80 "HgN/A
3:00 pm77 °FPassing clouds.7 mph51%29.80 "HgN/A
2:30 pm75 °FPassing clouds.5 mph54%29.83 "HgN/A
2:00 pm75 °FSunny.3 mph54%29.83 "Hg10 mi
Weather by CustomWeather, © 2020

See weather overview